Location: ????????
(55.8351°N, 38.7040°E)
Time: 22:53:07
(UTC+00:00)

Cosmos 1626 - Pass Details

Date: 14 April 2024
Orbit: 408 x 412 km, 82.5° (Epoch: 23 May)

Event Time Altitude Azimuth Distance (km) Brightness Sun altitude
Rises 00:13:36 0° 134° (SE) 2,374 5.6 -15.9°
Enters shadow 01:15:06 -68° 192° (SSW) 12,266 9.1 -9.3°
Maximum altitude 01:50:53 86° 283° (WNW) 435 1.8 -4.9°
